When you browse on this site, cookies collect data to enhance your experience and personalize the content and advertising you see.
Visit our Privacy Policy to learn more. By continuing to use the site, you agree to this use of cookies and data.
  • In Hungary
  • List of Countries
  • For 7 days
  • Water Temperature
  • Weather Map
  • News
  • Weather Widgets
  • user-avatar
    Login

    Hourly Weather Eschwege

    Today, 30 March, Monday

    Time Temperature Precipitation Wind Pressure Humidity
    00:00 -5°C° 0 mm 3 mps 753 mmHg 80%
    01:00 -4°C° 0 mm 2 mps 753 mmHg 79%
    02:00 -5°C° 0 mm 2 mps 753 mmHg 79%
    03:00 -5°C° 0 mm 2 mps 752 mmHg 78%
    04:00 -3°C° 0 mm 1 mps 752 mmHg 78%
    05:00 -3°C° 0 mm 1 mps 752 mmHg 75%
    06:00 -2°C° 0 mm 1 mps 752 mmHg 71%
    07:00 -2°C° 0 mm 1 mps 752 mmHg 68%
    08:00 0°C° 0 mm 1 mps 752 mmHg 58%
    09:00 +2°C° 0 mm 1 mps 752 mmHg 47%
    10:00 +3°C° 0 mm 2 mps 752 mmHg 37%
    11:00 +4°C° 0 mm 2 mps 751 mmHg 38%
    12:00 +4°C° 0 mm 3 mps 751 mmHg 39%
    13:00 +5°C° 0 mm 3 mps 750 mmHg 40%
    14:00 +4°C° 0 mm 3 mps 749 mmHg 48%
    15:00 +4°C° 0 mm 4 mps 749 mmHg 56%
    16:00 +4°C° 0 mm 4 mps 748 mmHg 65%
    17:00 +3°C° 0.1 mm 3 mps 748 mmHg 74%
    18:00 +2°C° 0.1 mm 3 mps 748 mmHg 84%
    19:00 +2°C° 0.1 mm 2 mps 748 mmHg 94%
    20:00 +3°C° 0.2 mm 1 mps 749 mmHg 95%
    21:00 +2°C° 0.2 mm 1 mps 749 mmHg 96%
    22:00 +2°C° 0.2 mm 1 mps 749 mmHg 97%
    23:00 +2°C° 0.3 mm 1 mps 749 mmHg 96%

    Tomorrow, 31 March, Tuesday

    Time Temperature Precipitation Wind Pressure Humidity
    00:00 +1°C° 0.3 mm 2 mps 750 mmHg 95%
    01:00 +1°C° 0.3 mm 2 mps 750 mmHg 94%
    02:00 -1°C° 0 mm 2 mps 750 mmHg 93%
    03:00 -1°C° 0 mm 2 mps 750 mmHg 92%
    04:00 -2°C° 0 mm 3 mps 750 mmHg 91%
    05:00 -2°C° 0 mm 2 mps 751 mmHg 90%
    06:00 -3°C° 0 mm 2 mps 751 mmHg 90%
    07:00 -3°C° 0 mm 2 mps 752 mmHg 89%
    08:00 -2°C° 0 mm 2 mps 752 mmHg 80%
    09:00 +1°C° 0 mm 2 mps 752 mmHg 70%
    10:00 +1°C° 0 mm 3 mps 753 mmHg 61%
    11:00 +3°C° 0 mm 2 mps 752 mmHg 56%
    12:00 +4°C° 0 mm 2 mps 752 mmHg 51%
    13:00 +4°C° 0 mm 2 mps 752 mmHg 47%
    14:00 +5°C° 0 mm 2 mps 752 mmHg 46%
    15:00 +5°C° 0 mm 2 mps 751 mmHg 46%
    16:00 +5°C° 0 mm 2 mps 751 mmHg 46%
    17:00 +4°C° 0 mm 1 mps 751 mmHg 52%
    18:00 +3°C° 0 mm 1 mps 751 mmHg 59%
    19:00 0°C° 0 mm 0 mps 750 mmHg 66%
    20:00 0°C° 0 mm 0 mps 751 mmHg 68%
    21:00 -1°C° 0 mm 0 mps 751 mmHg 69%
    22:00 -1°C° 0 mm 0 mps 751 mmHg 71%
    23:00 -1°C° 0 mm 1 mps 750 mmHg 71%

    Day after tomorrow, 1 April, Wednesday

    Time Temperature Precipitation Wind Pressure Humidity
    00:00 -1°C° 0 mm 1 mps 750 mmHg 72%
    01:00 -1°C° 0 mm 1 mps 750 mmHg 72%
    02:00 -1°C° 0 mm 1 mps 749 mmHg 72%
    03:00 -1°C° 0 mm 1 mps 749 mmHg 71%
    04:00 -1°C° 0 mm 1 mps 748 mmHg 71%
    05:00 -1°C° 0 mm 1 mps 748 mmHg 69%
    06:00 -1°C° 0 mm 1 mps 748 mmHg 66%
    07:00 0°C° 0 mm 1 mps 748 mmHg 64%
    08:00 +1°C° 0 mm 2 mps 748 mmHg 58%
    09:00 +3°C° 0 mm 2 mps 747 mmHg 53%
    10:00 +5°C° 0 mm 2 mps 747 mmHg 47%
    11:00 +6°C° 0 mm 2 mps 747 mmHg 47%
    12:00 +7°C° 0 mm 2 mps 746 mmHg 46%
    13:00 +8°C° 0 mm 3 mps 746 mmHg 46%
    14:00 +8°C° 0 mm 3 mps 745 mmHg 49%
    15:00 +8°C° 0 mm 3 mps 745 mmHg 52%
    16:00 +8°C° 0 mm 3 mps 744 mmHg 55%
    17:00 +5°C° 0 mm 3 mps 744 mmHg 64%
    18:00 +4°C° 0 mm 2 mps 744 mmHg 73%
    19:00 +2°C° 0 mm 2 mps 744 mmHg 81%
    20:00 +3°C° 0 mm 1 mps 744 mmHg 82%
    21:00 +2°C° 0 mm 1 mps 744 mmHg 84%
    22:00 +2°C° 0 mm 1 mps 744 mmHg 85%
    23:00 +2°C° 0 mm 1 mps 743 mmHg 86%

    2 April, Thursday

    Time Temperature Precipitation Wind Pressure Humidity
    00:00 +1°C° 0 mm 1 mps 743 mmHg 87%
    01:00 +1°C° 0 mm 1 mps 743 mmHg 88%
    02:00 +1°C° 0 mm 1 mps 743 mmHg 90%
    03:00 +1°C° 0 mm 1 mps 742 mmHg 91%
    04:00 -1°C° 0 mm 2 mps 742 mmHg 92%
    05:00 -1°C° 0 mm 2 mps 742 mmHg 91%
    06:00 -1°C° 0 mm 2 mps 742 mmHg 90%
    07:00 -1°C° 0 mm 2 mps 742 mmHg 89%
    08:00 +2°C° 0 mm 2 mps 742 mmHg 81%
    09:00 +4°C° 0 mm 2 mps 742 mmHg 73%
    10:00 +5°C° 0 mm 3 mps 742 mmHg 65%
    11:00 +7°C° 0 mm 3 mps 742 mmHg 63%
    12:00 +8°C° 0 mm 3 mps 741 mmHg 61%
    13:00 +8°C° 0 mm 3 mps 741 mmHg 60%
    14:00 +8°C° 0 mm 3 mps 740 mmHg 60%
    15:00 +8°C° 0 mm 3 mps 740 mmHg 61%
    16:00 +8°C° 0 mm 3 mps 739 mmHg 62%
    17:00 +7°C° 0 mm 3 mps 739 mmHg 66%
    18:00 +7°C° 0 mm 2 mps 739 mmHg 70%
    19:00 +6°C° 0 mm 2 mps 738 mmHg 74%
    20:00 +5°C° 0 mm 2 mps 738 mmHg 76%
    21:00 +4°C° 0 mm 2 mps 738 mmHg 79%
    22:00 +3°C° 0 mm 3 mps 738 mmHg 81%
    23:00 +2°C° 0 mm 3 mps 738 mmHg 84%

    3 April, Friday

    Time Temperature Precipitation Wind Pressure Humidity
    00:00 +2°C° 0 mm 3 mps 738 mmHg 88%
    01:00 +1°C° 0 mm 3 mps 738 mmHg 91%
    02:00 +1°C° 0 mm 3 mps 738 mmHg 90%
    03:00 0°C° 0 mm 4 mps 738 mmHg 89%
    04:00 0°C° 0 mm 4 mps 737 mmHg 89%
    05:00 +1°C° 0.1 mm 4 mps 738 mmHg 90%
    06:00 +1°C° 0.1 mm 4 mps 739 mmHg 90%
    07:00 +2°C° 0.1 mm 5 mps 739 mmHg 91%
    08:00 +2°C° 0.2 mm 5 mps 740 mmHg 86%
    09:00 +3°C° 0.2 mm 5 mps 740 mmHg 81%
    10:00 +5°C° 0.2 mm 5 mps 741 mmHg 75%
    11:00 +5°C° 0 mm 5 mps 741 mmHg 68%
    12:00 +6°C° 0 mm 5 mps 742 mmHg 60%
    13:00 +7°C° 0 mm 5 mps 742 mmHg 52%
    14:00 +7°C° 0 mm 5 mps 742 mmHg 52%
    15:00 +7°C° 0 mm 5 mps 743 mmHg 51%
    16:00 +7°C° 0 mm 5 mps 743 mmHg 50%
    17:00 +6°C° 0 mm 4 mps 743 mmHg 56%
    18:00 +4°C° 0 mm 3 mps 744 mmHg 63%
    19:00 +4°C° 0 mm 2 mps 744 mmHg 70%
    20:00 +3°C° 0 mm 2 mps 745 mmHg 73%
    21:00 +3°C° 0 mm 1 mps 746 mmHg 77%
    22:00 +2°C° 0 mm 1 mps 747 mmHg 81%
    23:00 +1°C° 0 mm 1 mps 747 mmHg 82%

    4 April, Saturday

    Time Temperature Precipitation Wind Pressure Humidity
    00:00 +1°C° 0 mm 1 mps 748 mmHg 82%
    01:00 0°C° 0 mm 1 mps 748 mmHg 83%
    02:00 -1°C° 0 mm 0 mps 749 mmHg 84%
    03:00 -1°C° 0 mm 0 mps 749 mmHg 85%
    04:00 -1°C° 0 mm 0 mps 749 mmHg 85%
    05:00 -1°C° 0 mm 0 mps 750 mmHg 81%
    06:00 0°C° 0 mm 0 mps 750 mmHg 77%
    07:00 +1°C° 0 mm 0 mps 751 mmHg 73%
    08:00 +4°C° 0 mm 1 mps 751 mmHg 62%
    09:00 +4°C° 0 mm 2 mps 751 mmHg 52%
    10:00 +5°C° 0 mm 3 mps 751 mmHg 41%
    11:00 +7°C° 0 mm 3 mps 751 mmHg 39%
    12:00 +9°C° 0 mm 3 mps 751 mmHg 36%
    13:00 +10°C° 0 mm 3 mps 751 mmHg 34%
    14:00 +10°C° 0 mm 4 mps 751 mmHg 36%
    15:00 +10°C° 0 mm 4 mps 751 mmHg 38%
    16:00 +10°C° 0 mm 4 mps 750 mmHg 40%
    17:00 +7°C° 0 mm 4 mps 750 mmHg 47%
    18:00 +5°C° 0 mm 3 mps 750 mmHg 55%
    19:00 +4°C° 0 mm 3 mps 750 mmHg 62%
    20:00 +3°C° 0 mm 3 mps 750 mmHg 65%
    21:00 +2°C° 0 mm 3 mps 751 mmHg 67%
    22:00 +2°C° 0 mm 2 mps 751 mmHg 69%
    23:00 +1°C° 0 mm 2 mps 751 mmHg 72%
    Show more